Temp
72 71 70 69 70 70 69 69 68 68 69 69 69 68 67 65 65 63 63 63 62 62 62 61 61 62 61 62 62 62 60 59 55 57 58 60 59 59 61 62 62 62 64
73 69 67 67 67 68 68 69 70 70 70 70 69 69 69 68 68 67 66 66 64 62 63 62 62 63 61 62 61 61 60 60 58 56 59 58 58 60 60 60 62 68 65
72 70 68 67 67 67 68 68 68 68 68 69 70 69 70 69 69 68 67 64 63 62 61 60 59 59 57 60 60 60 60 61 61 58 58 60 60 61 60 61 60 59 64
69 70 67 69 69 69 69 69 69 69 69 67 67 67 67 66 68 67 67 64 63 62 61 60 60 58 57 57 58 57 58 58 58 58 57 60 60 60 59 56 55 57 58
70 67 66 66 68 69 69 68 68 67 67 67 66 65 65 64 63 63 64 63 63 63 62 62 59 60 61 58 58 56 55 56 55 55 56 56 55 55 53 55 54 55 55
70 69 68 69 66 66 66 64 64 64 63 63 62 62 61 63 52 55 62 62 61 60 59 60 59 58 59 59 58 57 56 54 52 53 53 51 51 53 54 53 53 51 49
67 65 64 63 62 62 62 62 62 61 60 59 60 62 58 58 51 52 58 61 60 60 58 58 59 60 56 56 57 57 57 58 59 55 52 52 51 53 52 51 51 50 50
66 65 63 61 60 60 60 60 63 64 62 61 61 62 60 57 51 51 54 60 60 59 59 58 56 55 53 53 58 58 58 58 58 60 56 55 55 54 53 52 52 52 54
64 63 63 63 60 59 60 62 64 64 63 62 62 61 60 57 50 49 55 62 59 58 58 57 57 55 49 49 57 55 56 56 60 59 55 53 52 51 51 51 51 49 49
60 60 61 62 61 61 62 64 65 64 63 64 62 61 58 60 50 49 53 62 58 58 56 55 51 54 49 49 52 54 53 55 54 56 56 56 56 55 53 54 52 49 48
62 63 64 63 61 62 62 62 63 63 63 62 62 61 61 61 56 50 51 60 59 61 58 59 60 51 50 50 47 53 52 51 54 55 56 57 56 56 56 56 55 52 48
65 64 65 65 68 66 63 64 64 63 62 61 60 60 62 60 56 50 51 52 52 58 59 60 59 51 49 50 49 50 48 50 57 56 55 53 54 54 55 55 55 53 53
65 65 68 69 66 64 65 64 64 63 62 63 60 57 58 60 60 52 51 52 54 56 60 56 53 49 48 50 47 48 48 56 55 55 54 53 54 56 55 55 54 54 55
66 64 66 67 65 61 61 60 58 60 60 61 60 60 60 60 60 60 62 61 53 58 56 59 57 53 50 55 56 56 58 57 55 54 54 55 56 56 54 55 53 53 51
67 65 67 65 63 60 56 56 59 53 56 61 60 62 60 58 55 47 49 56 56 53 49 57 58 58 57 58 58 58 57 56 53 55 54 55 56 55 55 54 52 52 49
65 66 66 65 63 65 61 58 42 45 43 43 44 53 56 47 44 44 45 47 45 42 53 55 56 57 56 56 55 56 57 56 56 54 55 54 53 54 53 53 53 51 49
63 66 67 61 61 63 65 64 58 51 44 44 44 46 46 43 44 44 47 45 48 47 55 56 56 55 55 55 55 55 55 55 56 54 55 53 53 53 54 52 51 51 50
66 57 66 69 66 66 63 61 61 59 58 58 45 49 46 45 46 46 47 47 57 55 57 56 56 56 55 56 56 55 55 55 55 55 54 54 54 53 52 52 51 50 48
67 67 67 66 65 62 64 63 64 65 63 63 61 48 48 46 46 46 45 58 57 57 57 58 59 59 57 56 57 56 55 53 52 54 54 55 55 54 52 52 51 44 46
67 57 59 67 66 66 65 67 67 67 66 63 62 60 61 59 57 58 59 60 60 60 59 59 61 60 59 59 57 56 55 56 55 56 55 55 55 53 52 51 50 51 51
68 68 57 69 69 69 69 68 68 68 66 62 59 56 37 56 62 61 60 60 60 60 60 61 63 63 62 58 58 57 56 56 55 54 55 54 55 53 53 52 53 52 54
70 69 70 70 69 70 68 69 68 68 67 65 61 60 40 56 63 62 62 62 64 64 64 62 64 63 62 59 58 57 56 53 53 53 53 54 55 54 53 52 53 53 52
71 70 71 70 66 58 66 69 68 68 67 66 66 65 64 64 64 63 63 64 64 63 64 63 62 62 62 60 59 58 53 50 49 51 52 52 54 54 53 51 52 52 51
72 72 71 69 68 67 68 67 66 57 65 66 65 64 64 64 64 63 64 64 64 64 63 63 62 62 60 59 58 57 51 46 45 51 49 50 54 53 55 52 53 54 53
74 72 71 69 68 68 68 68 69 68 67 66 65 65 65 66 65 65 64 65 64 63 63 62 61 61 60 56 54 53 40 34 39 35 47 48 49 51 55 56 55 55 55
73 73 72 71 69 70 69 69 68 68 67 67 66 66 66 66 65 65 65 64 63 63 63 62 62 61 59 55 51 38 35 35 38 33 38 46 52 55 58 58 58 56 56
MSLP
1013.84 1014.22 1014.51 1014.79 1014.90 1014.95 1014.92 1015.07 1015.33 1015.46 1015.66 1015.90 1016.16 1016.37 1016.55 1016.84 1016.96 1017.00 1017.21 1017.32 1017.43 1017.58 1017.54 1017.52 1017.36 1017.22 1017.21 1017.03 1016.90 1016.73 1016.75 1016.74 1016.72 1016.53 1016.52 1016.48 1016.63 1016.53 1016.42 1016.42 1016.50 1016.35 1015.99
1014.40 1015.03 1015.48 1015.69 1015.79 1015.77 1015.78 1015.72 1015.86 1016.05 1016.25 1016.45 1016.67 1016.78 1016.95 1017.10 1017.17 1017.33 1017.29 1017.38 1017.83 1017.88 1017.93 1017.83 1017.79 1017.58 1017.44 1017.20 1017.08 1016.96 1016.89 1016.58 1016.55 1016.43 1016.22 1016.38 1016.43 1016.25 1016.21 1016.21 1016.02 1015.65 1015.48
1014.93 1015.37 1015.78 1016.11 1016.29 1016.43 1016.52 1016.54 1016.65 1016.85 1016.97 1017.14 1017.20 1017.20 1017.09 1017.26 1017.32 1017.44 1017.49 1017.88 1018.10 1018.33 1018.49 1018.54 1018.53 1018.35 1018.21 1017.74 1017.64 1017.48 1017.22 1016.70 1016.24 1016.26 1016.01 1015.71 1015.77 1016.07 1016.01 1015.88 1015.80 1015.62 1015.49
1015.67 1015.89 1016.26 1016.49 1016.74 1016.90 1016.94 1017.01 1017.12 1017.37 1017.58 1017.83 1017.95 1018.02 1018.01 1018.04 1017.84 1017.91 1018.06 1018.29 1018.44 1018.72 1018.87 1018.98 1019.01 1018.96 1018.74 1018.43 1018.35 1018.31 1017.93 1017.51 1017.14 1016.95 1016.60 1016.57 1016.84 1016.71 1016.67 1016.94 1016.60 1016.16 1016.00
1016.16 1016.55 1016.98 1017.14 1017.28 1017.39 1017.53 1017.66 1017.77 1017.96 1018.27 1018.57 1018.88 1019.02 1019.02 1019.11 1019.19 1018.89 1018.83 1018.81 1018.85 1018.81 1019.06 1019.32 1019.64 1019.59 1019.37 1019.16 1018.91 1018.82 1018.53 1018.57 1018.33 1017.81 1017.72 1017.67 1017.78 1017.66 1017.65 1017.50 1017.17 1016.83 1016.30
1016.52 1016.91 1017.21 1017.52 1018.07 1018.16 1018.28 1018.53 1018.69 1018.90 1019.05 1019.23 1019.65 1019.87 1020.16 1020.21 1019.95 1019.76 1019.63 1019.56 1019.62 1019.69 1019.87 1019.91 1019.87 1019.99 1019.96 1019.69 1019.54 1019.38 1019.21 1019.05 1018.94 1018.83 1018.74 1018.76 1018.67 1018.49 1018.23 1018.00 1017.55 1017.20 1016.74
1017.30 1017.74 1018.03 1018.58 1018.87 1019.03 1019.20 1019.24 1019.46 1019.71 1019.72 1019.89 1020.13 1020.54 1020.95 1021.10 1020.90 1020.64 1020.45 1020.34 1020.28 1020.23 1020.38 1020.45 1020.53 1020.49 1020.44 1020.10 1019.69 1019.53 1019.44 1019.29 1019.11 1018.90 1019.00 1018.97 1018.81 1018.66 1018.43 1018.19 1017.86 1017.64 1017.23
1018.07 1018.55 1018.94 1019.14 1019.47 1019.61 1019.73 1019.87 1019.77 1020.02 1020.18 1020.43 1020.68 1021.00 1021.34 1021.78 1021.47 1021.18 1020.86 1020.59 1020.67 1020.60 1020.57 1020.73 1020.89 1020.94 1020.82 1020.51 1019.98 1019.68 1019.47 1019.32 1019.17 1019.12 1019.13 1018.90 1018.73 1018.79 1018.73 1018.53 1018.12 1017.55 1016.91
1018.68 1019.09 1019.32 1019.53 1019.75 1020.08 1020.09 1020.00 1020.01 1020.33 1020.42 1020.65 1020.95 1021.21 1021.50 1021.76 1021.52 1021.29 1020.75 1020.57 1020.63 1021.04 1021.13 1021.11 1021.24 1021.50 1021.43 1021.10 1020.69 1020.41 1019.90 1019.70 1019.36 1019.07 1019.01 1018.82 1018.77 1018.70 1018.63 1018.47 1018.08 1017.71 1017.12
1019.18 1019.49 1019.64 1019.79 1019.95 1020.18 1020.06 1020.21 1020.36 1020.50 1020.66 1020.97 1021.17 1021.36 1021.54 1021.66 1021.50 1021.30 1021.09 1020.96 1021.12 1021.34 1021.64 1021.64 1021.45 1021.58 1021.47 1021.42 1021.32 1020.78 1020.47 1020.09 1019.68 1019.27 1019.02 1018.56 1018.38 1018.38 1018.37 1018.12 1017.96 1017.90 1017.56
1019.21 1019.43 1019.60 1019.79 1019.94 1020.08 1020.36 1020.45 1020.50 1020.75 1020.90 1020.97 1021.11 1021.18 1021.29 1021.56 1021.83 1021.60 1021.29 1021.30 1021.27 1021.02 1021.39 1021.35 1021.18 1021.17 1021.21 1021.26 1021.44 1021.14 1020.78 1020.30 1019.73 1019.33 1019.04 1018.77 1018.57 1018.40 1018.04 1017.91 1017.75 1017.79 1017.60
1019.04 1019.24 1019.36 1019.57 1019.69 1020.27 1020.48 1020.46 1020.68 1020.83 1020.80 1020.74 1020.72 1020.94 1021.18 1021.38 1021.42 1021.70 1021.49 1021.63 1021.68 1021.50 1021.25 1021.20 1021.15 1021.00 1021.11 1021.24 1021.35 1021.00 1020.63 1020.27 1019.80 1019.46 1019.21 1019.13 1018.80 1018.37 1018.14 1017.78 1017.37 1017.30 1017.10
1019.17 1019.20 1019.07 1019.28 1019.74 1020.05 1020.15 1020.42 1020.51 1020.71 1020.60 1020.72 1021.19 1021.24 1021.48 1021.68 1021.85 1021.67 1021.60 1021.70 1021.68 1021.81 1021.55 1021.50 1021.14 1020.88 1020.57 1020.94 1020.92 1020.80 1020.71 1020.31 1020.02 1019.77 1019.48 1019.18 1018.87 1018.38 1017.97 1017.68 1017.36 1016.92 1016.45
1019.13 1019.28 1019.35 1019.62 1019.74 1020.31 1020.79 1020.98 1021.18 1021.20 1021.29 1021.37 1021.42 1021.48 1021.69 1021.81 1022.06 1022.29 1022.09 1021.94 1021.69 1021.85 1021.72 1021.31 1021.02 1020.78 1020.35 1020.39 1020.53 1020.45 1020.47 1020.25 1020.01 1019.78 1019.50 1019.02 1018.71 1018.33 1018.07 1017.86 1017.51 1017.04 1016.63
1018.97 1019.10 1019.37 1019.59 1020.02 1020.69 1021.24 1021.57 1022.00 1022.59 1022.45 1022.17 1022.25 1021.94 1022.13 1022.29 1022.94 1023.14 1022.97 1022.63 1022.52 1022.61 1022.26 1021.54 1021.10 1020.86 1020.76 1020.60 1020.45 1020.42 1020.46 1020.33 1020.23 1019.90 1019.63 1019.27 1018.81 1018.53 1018.25 1017.88 1017.48 1017.08 1016.95
1018.98 1019.15 1019.28 1019.48 1019.89 1020.36 1021.11 1022.11 1022.95 1022.99 1022.88 1022.70 1022.58 1022.57 1022.80 1022.92 1023.00 1022.84 1022.75 1022.62 1022.65 1022.95 1022.57 1021.83 1021.42 1021.23 1021.08 1020.88 1020.68 1020.68 1020.52 1020.40 1020.19 1020.01 1019.70 1019.58 1019.28 1018.81 1018.47 1018.06 1017.70 1017.40 1017.35
1019.01 1019.25 1019.40 1019.48 1019.71 1020.08 1020.70 1021.30 1022.31 1023.13 1023.01 1022.88 1022.71 1022.67 1022.71 1022.89 1022.79 1022.76 1022.70 1022.77 1022.47 1022.68 1022.25 1021.73 1021.62 1021.50 1021.18 1021.01 1020.93 1020.90 1020.84 1020.58 1020.30 1020.25 1019.89 1019.65 1019.29 1019.12 1018.75 1018.40 1018.11 1017.71 1017.57
1018.95 1019.32 1019.31 1019.13 1019.84 1020.13 1020.35 1020.92 1021.08 1021.85 1022.17 1022.47 1022.99 1022.96 1022.80 1022.70 1022.74 1022.77 1022.58 1022.60 1022.24 1022.01 1021.89 1021.86 1021.66 1021.36 1021.14 1021.02 1021.06 1021.11 1020.95 1020.77 1020.48 1020.13 1019.96 1019.66 1019.39 1019.11 1018.83 1018.47 1018.19 1017.97 1017.99
1019.25 1019.31 1019.26 1019.61 1019.91 1020.05 1020.23 1020.40 1020.49 1020.73 1020.90 1021.19 1022.04 1022.93 1022.93 1022.72 1022.78 1022.73 1022.79 1022.49 1022.26 1022.08 1021.99 1021.61 1021.29 1021.03 1020.91 1021.12 1021.27 1021.30 1021.19 1021.04 1020.81 1020.37 1019.95 1019.78 1019.50 1019.12 1018.78 1018.50 1018.29 1018.02 1017.82
1019.23 1019.44 1019.49 1019.60 1019.79 1019.73 1019.82 1019.76 1019.76 1019.78 1020.06 1020.76 1021.46 1021.97 1022.17 1022.19 1022.53 1022.42 1022.29 1021.81 1021.63 1021.60 1021.69 1021.39 1021.04 1020.80 1021.10 1021.32 1021.45 1021.43 1021.30 1021.02 1020.83 1020.51 1020.28 1019.94 1019.66 1019.32 1018.98 1018.70 1018.27 1017.96 1017.68
1018.81 1019.15 1019.31 1019.11 1019.14 1019.13 1019.17 1019.22 1019.49 1019.69 1019.92 1020.63 1021.56 1022.01 1022.17 1022.17 1021.60 1021.73 1021.87 1021.80 1021.79 1021.75 1021.61 1021.19 1020.71 1020.89 1021.08 1021.49 1021.62 1021.47 1021.47 1021.45 1021.45 1021.30 1020.87 1020.43 1019.84 1019.49 1019.08 1018.53 1018.02 1017.74 1017.52
1018.54 1018.66 1018.77 1018.66 1018.93 1018.84 1019.31 1019.34 1019.51 1019.70 1020.00 1020.29 1021.12 1021.54 1021.74 1021.94 1021.33 1021.45 1021.56 1021.58 1021.44 1021.33 1021.28 1021.26 1020.98 1020.94 1021.23 1021.58 1021.69 1021.55 1021.75 1022.14 1022.14 1021.85 1021.37 1020.76 1020.12 1019.56 1019.03 1018.59 1017.98 1017.67 1017.45
1018.23 1018.18 1018.19 1018.49 1019.21 1019.63 1019.63 1019.25 1019.59 1019.91 1020.17 1020.36 1020.44 1020.72 1021.00 1021.17 1021.25 1021.34 1021.42 1021.49 1021.47 1021.56 1021.56 1021.53 1021.46 1021.57 1021.79 1021.67 1021.58 1021.97 1022.57 1022.86 1022.68 1022.14 1021.61 1021.08 1020.34 1019.71 1019.12 1018.68 1018.17 1017.65 1017.43
1017.85 1017.90 1018.06 1018.58 1019.14 1019.32 1019.31 1019.55 1020.10 1020.34 1020.21 1020.25 1020.73 1020.98 1021.16 1021.25 1021.31 1021.52 1021.45 1021.46 1021.50 1021.52 1021.70 1021.69 1021.87 1021.98 1022.06 1022.10 1022.33 1022.49 1023.18 1023.33 1022.99 1022.28 1022.11 1021.40 1020.54 1019.84 1019.19 1018.53 1018.10 1017.65 1017.39
1017.34 1017.78 1018.11 1018.56 1018.97 1019.06 1019.29 1019.36 1019.50 1019.78 1020.05 1020.41 1020.72 1020.90 1021.07 1021.07 1021.22 1021.35 1021.40 1021.41 1021.51 1021.65 1021.68 1021.87 1022.24 1022.21 1022.31 1022.80 1023.20 1023.28 1023.46 1023.28 1023.00 1022.76 1021.98 1021.40 1020.76 1019.98 1019.17 1018.34 1017.79 1017.61 1017.36
1017.19 1017.34 1017.82 1018.25 1018.62 1018.75 1018.88 1019.07 1019.31 1019.62 1019.89 1020.22 1020.50 1020.69 1020.85 1020.90 1021.12 1021.30 1021.38 1021.60 1021.64 1021.66 1021.82 1022.00 1022.24 1022.34 1022.72 1023.25 1023.58 1023.58 1023.41 1023.07 1022.70 1022.38 1021.97 1021.20 1020.39 1019.77 1019.01 1018.44 1017.82 1017.76 1017.50
Wind_Speed
10 11 11 10 10 10 9 10 10 10 10 11 10 10 10 8 7 7 6 5 5 5 4 4 4 3 2 1 0 1 1 1 1 2 3 4 4 3 3 5 7 7 8
10 12 11 10 9 9 9 8 10 10 10 10 10 7 9 6 5 4 4 7 11 9 10 10 12 8 8 5 4 4 3 2 1 3 1 3 5 6 5 5 4 4 4
10 10 9 9 9 10 11 11 10 11 10 9 8 6 6 7 7 6 7 10 10 11 10 10 10 9 9 7 8 8 8 7 1 3 2 3 2 2 2 1 1 3 3
9 10 8 10 10 9 9 9 8 8 9 10 10 11 12 12 9 9 8 8 8 8 7 8 9 8 8 8 8 8 9 9 9 7 5 7 8 7 6 6 6 4 5
10 10 9 8 9 10 10 10 9 8 9 10 10 10 9 11 10 8 8 9 8 6 8 9 7 9 10 10 5 6 7 8 7 7 8 8 8 7 7 6 6 5 5
10 8 9 9 11 10 11 11 10 9 9 10 9 10 9 9 15 16 9 8 9 11 10 9 9 15 13 7 7 9 6 5 5 5 6 5 6 6 5 6 6 6 5
11 11 11 11 10 9 8 7 7 6 7 7 8 8 9 8 14 13 10 8 8 7 8 8 8 9 11 9 8 2 1 5 8 4 5 4 4 5 5 7 7 7 7
11 11 10 9 7 5 5 4 6 6 7 7 7 6 6 6 8 11 9 7 5 5 6 7 7 8 9 10 8 10 6 6 4 4 4 4 4 6 4 5 8 6 6
8 8 6 4 6 3 4 5 6 6 5 6 6 6 5 5 10 11 8 5 7 6 6 6 6 5 8 13 7 6 6 6 8 7 11 9 7 7 4 3 5 6 7
8 6 4 5 4 3 6 6 5 5 5 6 6 5 6 4 8 10 10 6 6 6 5 4 5 5 5 7 6 6 6 7 8 8 7 2 2 2 6 2 4 5 7
5 4 4 5 6 6 7 4 5 6 5 4 4 4 4 4 4 8 11 6 6 2 6 1 4 3 1 7 4 5 4 5 8 5 3 4 5 6 3 3 3 2 4
3 6 6 6 7 7 6 4 5 5 4 5 6 6 6 5 5 2 6 6 7 5 4 4 4 8 2 6 6 8 11 10 4 5 3 4 4 3 4 4 4 3 4
2 2 3 7 8 5 5 5 4 3 4 2 6 7 5 3 2 4 2 2 5 4 5 6 10 11 14 5 8 10 8 3 4 4 5 4 4 5 3 5 6 5 5
5 5 6 5 4 7 6 6 4 4 4 4 4 4 3 3 6 6 5 3 1 4 9 6 6 9 11 1 3 3 2 4 3 3 4 3 4 5 5 4 5 5 3
5 5 6 4 4 7 5 5 6 4 4 4 4 5 5 5 4 2 3 4 4 5 6 4 3 5 5 5 4 3 4 4 3 4 4 7 5 4 6 5 4 4 3
5 2 2 4 4 5 5 6 12 7 4 8 5 6 5 6 1 1 3 5 8 9 4 3 4 5 4 4 4 5 6 6 6 4 4 5 6 7 5 5 6 3 6
6 6 3 3 3 4 3 4 6 2 3 2 6 8 7 2 3 2 3 6 6 7 1 1 4 4 4 4 4 4 5 4 4 5 4 4 4 5 8 6 6 4 5
6 6 5 3 6 3 1 2 4 4 4 4 2 2 4 1 4 3 2 4 1 0 3 5 3 3 3 3 4 4 4 5 6 4 3 4 5 3 5 6 6 4 5
6 4 1 4 2 1 2 3 3 3 5 4 7 3 6 6 3 4 6 2 3 3 3 4 2 3 3 4 5 5 5 4 6 6 4 5 8 5 4 7 7 1 4
5 5 2 2 4 4 4 5 3 1 2 5 6 5 2 3 6 6 6 3 1 2 2 3 3 2 5 6 4 3 4 5 4 5 6 6 5 5 5 6 5 7 3
7 5 2 4 4 4 5 3 4 2 3 7 5 3 1 3 4 5 4 4 4 3 1 5 3 5 5 6 6 4 4 6 8 8 9 9 8 6 6 7 6 6 3
5 4 5 3 4 3 4 2 0 3 3 5 7 4 5 4 3 4 3 3 2 2 4 5 6 6 6 5 4 3 5 7 7 7 7 8 8 7 6 7 7 5 4
7 8 4 5 6 3 3 2 3 2 4 3 3 3 3 3 4 3 4 3 3 4 4 4 5 6 6 5 3 8 7 6 6 7 7 8 8 8 7 5 6 5 3
7 4 3 5 4 5 3 3 3 1 3 5 3 3 3 2 3 3 3 2 3 3 4 3 4 6 4 6 8 7 6 5 6 6 9 8 8 10 8 5 5 4 3
6 5 4 5 2 4 3 4 4 3 3 3 3 2 3 2 3 3 2 2 2 4 3 5 4 6 9 11 9 9 6 5 6 6 6 8 9 12 10 6 5 2 4
4 7 4 5 4 3 4 3 4 3 4 4 3 2 1 1 3 2 2 3 3 3 3 4 4 8 10 8 7 5 6 7 8 7 6 6 7 9 6 9 9 6 8
Wind_Direction
63 61 55 59 63 70 73 76 83 88 89 88 83 85 83 86 84 88 85 81 75 65 54 50 45 42 19 340 6 339 354 17 355 270 216 199 205 242 260 239 241 245 247
76 81 75 77 72 69 74 75 83 78 83 83 90 83 102 98 107 99 96 76 66 57 44 39 35 35 24 27 26 16 358 356 18 321 105 192 209 226 236 247 258 318 347
79 88 89 81 76 72 67 67 69 69 64 76 72 92 84 80 70 60 60 76 72 61 52 48 38 32 20 15 24 18 3 346 311 336 301 187 142 84 347 282 197 271 283
78 84 87 94 99 102 99 94 85 81 70 54 48 45 43 33 41 48 45 89 88 100 84 61 46 31 30 24 37 22 8 5 14 5 10 39 37 3 28 23 358 349 355
98 92 89 76 83 83 78 75 76 75 71 68 60 48 55 51 33 31 50 39 38 64 90 80 58 28 32 28 36 22 28 33 11 3 14 15 22 9 3 352 342 333 326
98 104 104 99 67 67 68 63 61 67 79 77 64 61 55 45 19 23 43 58 49 49 50 48 48 31 16 13 18 56 40 47 33 12 12 12 356 0 348 341 324 343 325
78 70 76 72 74 67 62 67 67 67 71 71 78 78 53 34 20 20 45 55 55 65 63 52 40 29 16 356 351 213 308 343 21 41 15 8 357 348 348 338 336 330 313
93 92 91 96 96 103 96 106 97 95 97 98 92 90 89 45 28 19 352 115 85 67 80 82 60 27 8 2 15 21 17 45 28 10 358 350 339 332 339 319 314 300 299
85 86 89 114 102 118 198 105 93 106 100 103 98 93 73 36 19 14 9 172 137 102 59 59 81 58 1 360 15 3 18 19 350 340 342 289 292 310 290 311 333 327 324
101 107 124 125 116 156 96 97 101 107 112 109 107 110 89 47 17 19 21 27 78 126 116 125 92 85 8 6 356 352 5 347 332 325 325 344 63 178 214 292 331 333 324
148 163 152 139 126 107 87 67 72 73 88 104 118 140 124 110 44 28 26 30 13 64 176 262 54 119 351 330 350 316 349 305 311 306 28 356 7 353 339 2 338 293 313
185 194 170 132 125 131 132 120 126 157 170 190 193 193 155 130 151 90 68 35 1 354 1 47 340 341 290 285 311 310 327 326 320 345 20 2 341 330 341 329 304 290 238
71 121 107 90 114 157 152 162 182 196 238 252 70 89 87 144 130 128 93 25 360 336 338 328 295 305 296 287 259 275 303 333 331 5 349 354 346 321 6 335 330 322 315
185 155 92 72 73 60 51 72 62 42 47 68 45 89 109 111 39 22 2 22 317 319 14 330 277 280 298 349 172 225 24 344 354 346 325 330 337 346 347 351 337 326 354
169 144 134 161 161 104 71 28 90 44 21 52 19 33 11 48 42 334 346 357 345 5 327 303 336 7 355 26 7 48 47 2 1 337 2 344 352 350 348 345 324 344 5
148 193 135 143 112 128 134 103 41 73 78 98 95 61 90 108 157 296 285 319 347 20 331 340 35 0 350 6 347 28 13 358 6 348 11 348 357 340 353 349 346 17 7
152 174 138 294 106 101 135 171 159 108 75 87 93 76 66 71 40 60 19 347 327 338 277 18 53 342 334 351 33 51 4 341 343 2 356 338 322 343 354 354 342 7 6
132 136 205 103 115 147 120 81 113 159 206 181 190 154 234 251 37 10 344 304 325 68 31 32 332 301 294 8 48 33 354 344 342 351 356 340 336 349 341 346 349 10 18
148 179 77 101 127 169 76 190 171 183 216 175 143 229 216 229 266 298 301 49 34 40 355 286 338 303 39 69 39 24 356 4 341 346 349 359 350 358 359 344 337 285 68
108 111 181 160 195 186 214 229 234 235 57 153 76 23 1 240 198 210 226 112 198 115 25 304 257 343 74 54 30 22 346 356 350 4 349 347 359 357 336 335 323 319 58
170 164 217 211 178 214 243 171 54 357 97 100 89 77 169 323 24 59 42 58 35 72 281 296 28 47 65 57 16 12 16 17 11 2 353 349 340 347 339 328 327 318 346
145 175 183 228 260 91 54 91 9 79 56 109 143 164 204 262 76 84 89 66 81 73 35 359 5 50 53 68 8 344 43 25 1 350 335 331 329 328 336 332 329 336 353
256 191 194 94 69 83 202 250 97 105 94 68 66 107 135 66 68 66 83 67 72 49 37 40 17 32 34 354 29 53 41 7 341 323 337 322 322 326 325 317 336 352 332
267 189 154 127 159 224 152 109 72 33 345 109 83 75 71 73 101 133 72 63 37 73 51 48 46 47 33 31 35 31 40 356 321 323 342 304 316 318 326 325 335 349 5
231 158 163 126 173 232 110 255 147 116 101 93 107 131 157 137 99 84 80 62 87 56 67 73 52 41 57 59 35 23 4 325 321 316 306 310 301 308 301 317 303 342 11
223 156 169 163 188 221 197 193 164 182 157 159 174 144 119 110 105 86 94 72 36 97 62 84 62 71 59 56 33 5 340 332 329 308 307 290 291 311 340 332 14 20 15